Wetterdaten: Montag, 03.06.2013
Datum Zeit Temperatur Luftfeuchte Luftdruck Regen Wind Richtung Richtung Taupunkt Windchill Windben
03.06.2013 00:00 6,2 C 96 % 1022,9 hPa 0,0 l/m 0,5 km/h (0 Bft) SO 135 5,6 C 6,2 C 0,0 km/h (0 Bft)
03.06.2013 00:05 6,2 C 96 % 1022,9 hPa 0,0 l/m 0,2 km/h (0 Bft) N 360 5,6 C 6,2 C 0,0 km/h (0 Bft)
03.06.2013 00:10 6,2 C 96 % 1022,9 hPa 0,0 l/m 0,0 km/h (0 Bft) NO 45 5,6 C 6,2 C 0,0 km/h (0 Bft)
03.06.2013 00:15 6,2 C 96 % 1022,9 hPa 0,0 l/m 0,0 km/h (0 Bft) O 90 5,6 C 6,2 C 0,0 km/h (0 Bft)
03.06.2013 00:20 6,2 C 96 % 1022,8 hPa 0,0 l/m 0,0 km/h (0 Bft) O 90 5,6 C 6,2 C 0,0 km/h (0 Bft)
03.06.2013 00:25 6,2 C 96 % 1022,8 hPa 0,0 l/m 0,5 km/h (0 Bft) SO 135 5,6 C 6,2 C 0,0 km/h (0 Bft)
03.06.2013 00:30 6,1 C 96 % 1022,8 hPa 0,0 l/m 0,6 km/h (0 Bft) SW 225 5,5 C 6,2 C 3,5 km/h (1 Bft)
03.06.2013 00:35 6,2 C 96 % 1022,8 hPa 0,0 l/m 1,3 km/h (1 Bft) NO 45 5,6 C 6,2 C 1,9 km/h (1 Bft)
03.06.2013 00:40 6,2 C 96 % 1023,0 hPa 0,0 l/m 1,3 km/h (1 Bft) W-SW 247 5,6 C 6,2 C 4,7 km/h (1 Bft)
03.06.2013 00:45 6,1 C 96 % 1023,0 hPa 0,0 l/m 0,3 km/h (0 Bft) O-NO 67 5,5 C 6,2 C 0,0 km/h (0 Bft)
03.06.2013 00:50 6,1 C 96 % 1023,0 hPa 0,0 l/m 0,2 km/h (0 Bft) W-SW 247 5,5 C 6,2 C 0,0 km/h (0 Bft)
03.06.2013 00:55 6,1 C 96 % 1023,0 hPa 0,0 l/m 0,0 km/h (0 Bft) NO 45 5,5 C 6,1 C 0,0 km/h (0 Bft)
03.06.2013 01:00 6,1 C 96 % 1022,9 hPa 0,7 l/m 0,0 km/h (0 Bft) NO 45 5,5 C 6,1 C 0,0 km/h (0 Bft)
03.06.2013 01:05 6,1 C 96 % 1022,9 hPa 0,0 l/m 1,4 km/h (1 Bft) W-NW 292 5,5 C 6,2 C 6,9 km/h (2 Bft)
03.06.2013 01:10 5,9 C 97 % 1022,9 hPa 0,0 l/m 3,4 km/h (1 Bft) W-SW 247 5,5 C 6,1 C 9,0 km/h (2 Bft)
03.06.2013 01:15 5,7 C 97 % 1022,9 hPa 0,0 l/m 4,0 km/h (1 Bft) NW 315 5,3 C 5,5 C 2,3 km/h (1 Bft)
03.06.2013 01:20 5,6 C 97 % 1023,2 hPa 0,0 l/m 3,5 km/h (1 Bft) W 270 5,2 C 5,6 C 10,0 km/h (2 Bft)
03.06.2013 01:25 5,5 C 97 % 1023,2 hPa 0,0 l/m 2,4 km/h (1 Bft) W-SW 247 5,1 C 5,6 C 1,6 km/h (1 Bft)
03.06.2013 01:30 5,5 C 97 % 1023,2 hPa 0,0 l/m 1,3 km/h (1 Bft) NO 45 5,1 C 5,6 C 1,9 km/h (1 Bft)
03.06.2013 01:35 5,5 C 97 % 1023,2 hPa 0,7 l/m 1,4 km/h (1 Bft) O 90 5,1 C 5,5 C 3,5 km/h (1 Bft)
03.06.2013 01:40 5,4 C 97 % 1022,9 hPa 0,0 l/m 1,8 km/h (1 Bft) NO 45 5,0 C 5,5 C 3,1 km/h (1 Bft)
03.06.2013 01:45 5,4 C 97 % 1022,9 hPa 0,0 l/m 1,6 km/h (1 Bft) N 360 5,0 C 5,5 C 2,1 km/h (1 Bft)
03.06.2013 01:50 5,4 C 97 % 1022,9 hPa 0,0 l/m 1,0 km/h (0 Bft) S 180 5,0 C 5,4 C 0,0 km/h (0 Bft)
03.06.2013 01:55 5,3 C 97 % 1022,9 hPa 0,0 l/m 2,3 km/h (1 Bft) W-NW 292 4,9 C 5,4 C 4,7 km/h (1 Bft)
03.06.2013 02:00 5,3 C 97 % 1023,0 hPa 0,0 l/m 2,6 km/h (1 Bft) W 270 4,9 C 5,4 C 6,6 km/h (2 Bft)
03.06.2013 02:05 5,2 C 97 % 1023,0 hPa 0,0 l/m 2,1 km/h (1 Bft) W 270 4,8 C 5,3 C 5,1 km/h (1 Bft)
03.06.2013 02:10 5,1 C 97 % 1023,0 hPa 0,7 l/m 1,9 km/h (1 Bft) NO 45 4,7 C 5,2 C 2,3 km/h (1 Bft)
03.06.2013 02:15 5,1 C 97 % 1023,0 hPa 0,0 l/m 1,3 km/h (1 Bft) NW 315 4,7 C 5,2 C 0,0 km/h (0 Bft)
03.06.2013 02:20 5,1 C 97 % 1023,1 hPa 0,0 l/m 0,5 km/h (0 Bft) NW 315 4,7 C 5,2 C 0,0 km/h (0 Bft)
03.06.2013 02:25 5,1 C 97 % 1023,1 hPa 0,0 l/m 0,0 km/h (0 Bft) N-NW 337 4,7 C 5,2 C 0,0 km/h (0 Bft)
03.06.2013 02:30 5,1 C 97 % 1023,1 hPa 0,0 l/m 0,0 km/h (0 Bft) NO 45 4,7 C 5,1 C 0,0 km/h (0 Bft)
03.06.2013 02:35 5,0 C 97 % 1023,1 hPa 0,0 l/m 0,0 km/h (0 Bft) NO 45 4,6 C 5,0 C 0,0 km/h (0 Bft)
03.06.2013 02:40 5,0 C 97 % 1023,1 hPa 0,0 l/m 0,0 km/h (0 Bft) N-NO 22 4,6 C 5,0 C 0,0 km/h (0 Bft)
03.06.2013 02:45 4,9 C 98 % 1023,1 hPa 0,0 l/m 0,3 km/h (0 Bft) N 360 4,6 C 4,9 C 0,0 km/h (0 Bft)
03.06.2013 02:50 4,9 C 97 % 1023,1 hPa 0,0 l/m 0,3 km/h (0 Bft) NO 45 4,5 C 4,9 C 0,0 km/h (0 Bft)
03.06.2013 02:55 4,9 C 97 % 1023,1 hPa 0,0 l/m 0,0 km/h (0 Bft) N 360 4,5 C 4,9 C 0,0 km/h (0 Bft)
03.06.2013 03:00 4,9 C 97 % 1022,9 hPa 0,0 l/m 0,0 km/h (0 Bft) W-NW 292 4,5 C 4,9 C 0,0 km/h (0 Bft)
03.06.2013 03:05 4,9 C 97 % 1022,9 hPa 0,7 l/m 0,0 km/h (0 Bft) NO 45 4,5 C 4,9 C 0,0 km/h (0 Bft)
03.06.2013 03:10 4,9 C 97 % 1022,9 hPa 0,0 l/m 0,2 km/h (0 Bft) N-NW 337 4,5 C 5,0 C 1,8 km/h (1 Bft)
03.06.2013 03:15 4,9 C 97 % 1022,9 hPa 0,0 l/m 0,5 km/h (0 Bft) N-NO 22 4,5 C 4,8 C 0,0 km/h (0 Bft)
03.06.2013 03:20 4,8 C 97 % 1022,9 hPa 0,0 l/m 1,1 km/h (1 Bft) N 360 4,4 C 4,8 C 2,4 km/h (1 Bft)
03.06.2013 03:25 4,7 C 97 % 1022,9 hPa 0,0 l/m 1,8 km/h (1 Bft) N-NW 337 4,3 C 4,7 C 1,8 km/h (1 Bft)
03.06.2013 03:30 4,6 C 97 % 1022,9 hPa 0,0 l/m 1,3 km/h (1 Bft) N-NW 337 4,2 C 4,6 C 0,0 km/h (0 Bft)
03.06.2013 03:35 4,6 C 97 % 1022,9 hPa 0,0 l/m 0,2 km/h (0 Bft) NO 45 4,2 C 4,6 C 0,0 km/h (0 Bft)
03.06.2013 03:40 4,6 C 97 % 1022,8 hPa 0,0 l/m 0,0 km/h (0 Bft) O 90 4,2 C 4,6 C 0,0 km/h (0 Bft)
03.06.2013 03:45 4,5 C 97 % 1022,8 hPa 0,0 l/m 0,0 km/h (0 Bft) O 90 4,1 C 4,6 C 0,0 km/h (0 Bft)
03.06.2013 03:50 4,5 C 97 % 1022,8 hPa 0,0 l/m 0,0 km/h (0 Bft) O 90 4,1 C 4,5 C 0,0 km/h (0 Bft)
03.06.2013 03:55 4,5 C 97 % 1022,8 hPa 0,0 l/m 0,0 km/h (0 Bft) N-NO 22 4,1 C 4,5 C 0,0 km/h (0 Bft)
03.06.2013 04:00 4,5 C 97 % 1022,8 hPa 0,0 l/m 0,0 km/h (0 Bft) O-NO 67 4,1 C 4,5 C 0,0 km/h (0 Bft)
03.06.2013 04:05 4,4 C 97 % 1022,8 hPa 0,0 l/m 0,2 km/h (0 Bft) O-NO 67 4,0 C 4,4 C 0,0 km/h (0 Bft)
03.06.2013 04:10 4,4 C 97 % 1022,8 hPa 0,0 l/m 0,2 km/h (0 Bft) N-NO 22 4,0 C 4,4 C 0,0 km/h (0 Bft)
03.06.2013 04:15 4,4 C 97 % 1022,8 hPa 0,0 l/m 0,2 km/h (0 Bft) O-NO 67 4,0 C 4,4 C 1,6 km/h (1 Bft)
03.06.2013 04:20 4,4 C 97 % 1022,9 hPa 0,0 l/m 0,6 km/h (0 Bft) O-NO 67 4,0 C 4,3 C 2,7 km/h (1 Bft)
03.06.2013 04:25 4,3 C 97 % 1022,9 hPa 0,0 l/m 1,6 km/h (1 Bft) O 90 3,9 C 4,3 C 2,1 km/h (1 Bft)
03.06.2013 04:30 4,3 C 97 % 1022,9 hPa 0,0 l/m 1,8 km/h (1 Bft) N-NO 22 3,9 C 4,2 C 0,0 km/h (0 Bft)
03.06.2013 04:35 4,4 C 97 % 1022,9 hPa 0,0 l/m 0,6 km/h (0 Bft) O-SO 112 4,0 C 4,2 C 0,0 km/h (0 Bft)
03.06.2013 04:40 4,4 C 97 % 1022,6 hPa 0,7 l/m 0,0 km/h (0 Bft) SO 135 4,0 C 4,2 C 0,0 km/h (0 Bft)
03.06.2013 04:45 4,4 C 97 % 1022,6 hPa 0,0 l/m 0,0 km/h (0 Bft) O-SO 112 4,0 C 4,3 C 0,0 km/h (0 Bft)
03.06.2013 04:50 4,4 C 97 % 1022,6 hPa 0,0 l/m 0,0 km/h (0 Bft) O 90 4,0 C 4,3 C 0,0 km/h (0 Bft)
03.06.2013 04:55 4,4 C 97 % 1022,6 hPa 0,0 l/m 0,0 km/h (0 Bft) NO 45 4,0 C 4,2 C 0,0 km/h (0 Bft)
03.06.2013 05:00 4,4 C 97 % 1022,5 hPa 0,0 l/m 0,0 km/h (0 Bft) SO 135 4,0 C 4,2 C 0,0 km/h (0 Bft)
03.06.2013 05:05 4,4 C 97 % 1022,5 hPa 0,0 l/m 0,0 km/h (0 Bft) N-NO 22 4,0 C 4,2 C 0,0 km/h (0 Bft)
03.06.2013 05:10 4,4 C 97 % 1022,5 hPa 0,0 l/m 0,0 km/h (0 Bft) NO 45 4,0 C 4,2 C 0,0 km/h (0 Bft)
03.06.2013 05:15 4,4 C 97 % 1022,5 hPa 0,0 l/m 0,0 km/h (0 Bft) NO 45 4,0 C 4,2 C 0,0 km/h (0 Bft)
03.06.2013 05:20 4,4 C 97 % 1022,6 hPa 0,0 l/m 0,0 km/h (0 Bft) NO 45 4,0 C 4,2 C 0,0 km/h (0 Bft)
03.06.2013 05:25 4,3 C 97 % 1022,6 hPa 0,0 l/m 0,2 km/h (0 Bft) NO 45 3,9 C 4,3 C 0,0 km/h (0 Bft)
03.06.2013 05:30 4,3 C 97 % 1022,6 hPa 0,0 l/m 0,5 km/h (0 Bft) O 90 3,9 C 4,3 C 1,8 km/h (1 Bft)
03.06.2013 05:35 4,3 C 97 % 1022,6 hPa 0,0 l/m 0,5 km/h (0 Bft) O 90 3,9 C 4,3 C 0,0 km/h (0 Bft)
03.06.2013 05:40 4,3 C 97 % 1022,6 hPa 0,0 l/m 0,2 km/h (0 Bft) O 90 3,9 C 4,3 C 0,0 km/h (0 Bft)
03.06.2013 05:45 4,4 C 97 % 1022,6 hPa 0,0 l/m 0,0 km/h (0 Bft) O 90 4,0 C 4,3 C 0,0 km/h (0 Bft)
03.06.2013 05:50 4,3 C 97 % 1022,6 hPa 0,0 l/m 0,0 km/h (0 Bft) O-NO 67 3,9 C 4,3 C 0,0 km/h (0 Bft)
03.06.2013 05:55 4,3 C 97 % 1022,6 hPa 0,0 l/m 0,0 km/h (0 Bft) O 90 3,9 C 4,3 C 0,0 km/h (0 Bft)
03.06.2013 06:00 4,3 C 97 % 1022,9 hPa 0,0 l/m 0,0 km/h (0 Bft) O-SO 112 3,9 C 4,3 C 0,0 km/h (0 Bft)
03.06.2013 06:05 4,4 C 97 % 1022,9 hPa 0,0 l/m 0,0 km/h (0 Bft) N 360 4,0 C 4,3 C 0,0 km/h (0 Bft)
03.06.2013 06:10 4,4 C 97 % 1022,9 hPa 0,0 l/m 0,0 km/h (0 Bft) O 90 4,0 C 4,3 C 0,0 km/h (0 Bft)
03.06.2013 06:15 4,5 C 97 % 1022,9 hPa 0,0 l/m 0,0 km/h (0 Bft) O-SO 112 4,1 C 4,4 C 0,0 km/h (0 Bft)
03.06.2013 06:20 4,5 C 97 % 1023,3 hPa 0,0 l/m 0,0 km/h (0 Bft) O 90 4,1 C 4,4 C 0,0 km/h (0 Bft)
03.06.2013 06:25 4,5 C 97 % 1023,3 hPa 0,0 l/m 0,5 km/h (0 Bft) NO 45 4,1 C 4,5 C 0,0 km/h (0 Bft)
03.06.2013 06:30 4,5 C 97 % 1023,3 hPa 0,0 l/m 0,6 km/h (0 Bft) N 360 4,1 C 4,6 C 2,6 km/h (1 Bft)
03.06.2013 06:35 4,6 C 98 % 1023,3 hPa 0,0 l/m 0,6 km/h (0 Bft) O 90 4,3 C 4,6 C 1,9 km/h (1 Bft)
03.06.2013 06:40 4,6 C 98 % 1023,4 hPa 0,0 l/m 0,5 km/h (0 Bft) O-NO 67 4,3 C 4,6 C 0,0 km/h (0 Bft)
03.06.2013 06:45 4,7 C 98 % 1023,4 hPa 0,0 l/m 0,3 km/h (0 Bft) S-SO 157 4,4 C 4,8 C 0,0 km/h (0 Bft)
03.06.2013 06:50 4,8 C 98 % 1023,4 hPa 0,0 l/m 0,2 km/h (0 Bft) S-SO 157 4,5 C 4,9 C 0,0 km/h (0 Bft)
03.06.2013 06:55 4,8 C 98 % 1023,4 hPa 0,0 l/m 0,0 km/h (0 Bft) O 90 4,5 C 5,1 C 0,0 km/h (0 Bft)
03.06.2013 07:00 4,8 C 98 % 1023,6 hPa 0,0 l/m 0,0 km/h (0 Bft) O 90 4,5 C 5,2 C 0,0 km/h (0 Bft)
03.06.2013 07:05 4,9 C 98 % 1023,6 hPa 0,0 l/m 0,2 km/h (0 Bft) S-SO 157 4,6 C 5,3 C 0,0 km/h (0 Bft)
03.06.2013 07:10 5,0 C 97 % 1023,6 hPa 0,0 l/m 0,6 km/h (0 Bft) O-SO 112 4,6 C 5,4 C 1,8 km/h (1 Bft)
03.06.2013 07:15 5,2 C 97 % 1023,6 hPa 0,0 l/m 1,0 km/h (0 Bft) S 180 4,8 C 5,5 C 1,8 km/h (1 Bft)
03.06.2013 07:20 5,1 C 97 % 1023,6 hPa 0,0 l/m 1,0 km/h (0 Bft) SO 135 4,7 C 5,6 C 0,0 km/h (0 Bft)
03.06.2013 07:25 5,3 C 97 % 1023,6 hPa 0,0 l/m 1,3 km/h (1 Bft) SO 135 4,9 C 5,7 C 0,0 km/h (0 Bft)
03.06.2013 07:30 5,4 C 97 % 1023,6 hPa 0,0 l/m 1,1 km/h (1 Bft) S 180 5,0 C 5,8 C 0,0 km/h (0 Bft)
03.06.2013 07:35 5,5 C 97 % 1023,6 hPa 0,0 l/m 1,4 km/h (1 Bft) S-SO 157 5,1 C 5,9 C 2,4 km/h (1 Bft)
03.06.2013 07:40 5,5 C 97 % 1023,6 hPa 0,0 l/m 1,9 km/h (1 Bft) S 180 5,1 C 5,9 C 3,2 km/h (1 Bft)
03.06.2013 07:45 5,7 C 97 % 1023,6 hPa 0,0 l/m 2,3 km/h (1 Bft) S 180 5,3 C 6,1 C 1,9 km/h (1 Bft)
03.06.2013 07:50 5,6 C 97 % 1023,6 hPa 0,0 l/m 2,3 km/h (1 Bft) O-SO 112 5,2 C 6,2 C 2,9 km/h (1 Bft)
03.06.2013 07:55 5,8 C 97 % 1023,6 hPa 0,0 l/m 1,3 km/h (1 Bft) S 180 5,4 C 6,4 C 0,0 km/h (0 Bft)
03.06.2013 08:00 5,8 C 97 % 1023,8 hPa 0,0 l/m 0,8 km/h (0 Bft) S 180 5,4 C 6,5 C 2,1 km/h (1 Bft)
03.06.2013 08:05 5,9 C 97 % 1023,8 hPa 0,0 l/m 0,8 km/h (0 Bft) SO 135 5,5 C 6,5 C 0,0 km/h (0 Bft)
03.06.2013 08:10 6,0 C 97 % 1023,8 hPa 0,0 l/m 0,8 km/h (0 Bft) S 180 5,6 C 6,7 C 2,3 km/h (1 Bft)
03.06.2013 08:15 6,1 C 96 % 1023,8 hPa 0,0 l/m 0,6 km/h (0 Bft) S-SW 202 5,5 C 6,8 C 0,0 km/h (0 Bft)
03.06.2013 08:20 6,3 C 97 % 1023,6 hPa 0,0 l/m 0,8 km/h (0 Bft) S 180 5,9 C 7,0 C 2,4 km/h (1 Bft)
03.06.2013 08:25 6,5 C 97 % 1023,6 hPa 0,0 l/m 1,0 km/h (0 Bft) O-SO 112 6,1 C 7,3 C 1,9 km/h (1 Bft)
03.06.2013 08:30 6,6 C 97 % 1023,6 hPa 0,0 l/m 1,6 km/h (1 Bft) S-SO 157 6,2 C 7,4 C 3,4 km/h (1 Bft)
03.06.2013 08:35 6,6 C 97 % 1023,6 hPa 0,0 l/m 1,9 km/h (1 Bft) S 180 6,2 C 7,4 C 2,4 km/h (1 Bft)
03.06.2013 08:40 6,6 C 96 % 1023,7 hPa 0,0 l/m 1,6 km/h (1 Bft) N 360 6,0 C 7,5 C 3,5 km/h (1 Bft)
03.06.2013 08:45 6,9 C 97 % 1023,7 hPa 0,0 l/m 1,1 km/h (1 Bft) S 180 6,5 C 7,6 C 0,0 km/h (0 Bft)
03.06.2013 08:50 6,7 C 97 % 1023,7 hPa 0,0 l/m 1,1 km/h (1 Bft) S 180 6,3 C 7,7 C 0,0 km/h (0 Bft)
03.06.2013 08:55 6,7 C 96 % 1023,7 hPa 0,0 l/m 1,9 km/h (1 Bft) S-SO 157 6,1 C 7,7 C 0,0 km/h (0 Bft)
03.06.2013 09:00 6,7 C 96 % 1023,9 hPa 0,0 l/m 2,1 km/h (1 Bft) S 180 6,1 C 7,7 C 0,0 km/h (0 Bft)
03.06.2013 09:05 6,9 C 97 % 1023,9 hPa 0,0 l/m 2,3 km/h (1 Bft) S-SO 157 6,5 C 7,8 C 4,3 km/h (1 Bft)
03.06.2013 09:10 6,9 C 97 % 1023,9 hPa 0,0 l/m 2,9 km/h (1 Bft) S-SW 202 6,5 C 7,9 C 3,7 km/h (1 Bft)
03.06.2013 09:15 7,0 C 96 % 1023,9 hPa 0,0 l/m 3,4 km/h (1 Bft) S-SW 202 6,4 C 8,0 C 3,7 km/h (1 Bft)
03.06.2013 09:20 7,1 C 96 % 1023,8 hPa 0,0 l/m 2,6 km/h (1 Bft) S 180 6,5 C 8,0 C 2,9 km/h (1 Bft)
03.06.2013 09:25 7,1 C 96 % 1023,8 hPa 0,0 l/m 1,9 km/h (1 Bft) W-SW 247 6,5 C 8,3 C 3,7 km/h (1 Bft)
03.06.2013 09:30 7,1 C 96 % 1023,8 hPa 0,0 l/m 2,6 km/h (1 Bft) S 180 6,5 C 8,3 C 4,0 km/h (1 Bft)
03.06.2013 09:35 7,2 C 96 % 1023,8 hPa 0,0 l/m 3,5 km/h (1 Bft) S 180 6,6 C 8,3 C 4,7 km/h (1 Bft)
03.06.2013 09:40 7,1 C 96 % 1024,1 hPa 0,0 l/m 3,4 km/h (1 Bft) W-SW 247 6,5 C 8,2 C 3,4 km/h (1 Bft)
03.06.2013 09:45 7,1 C 96 % 1024,1 hPa 0,0 l/m 2,6 km/h (1 Bft) W-SW 247 6,5 C 8,3 C 0,0 km/h (0 Bft)
03.06.2013 09:50 7,3 C 96 % 1024,1 hPa 0,0 l/m 2,6 km/h (1 Bft) SW 225 6,7 C 8,4 C 3,2 km/h (1 Bft)
03.06.2013 09:55 7,3 C 96 % 1024,1 hPa 0,0 l/m 2,4 km/h (1 Bft) S-SW 202 6,7 C 8,6 C 2,6 km/h (1 Bft)
03.06.2013 10:00 7,3 C 96 % 1024,1 hPa 0,0 l/m 3,1 km/h (1 Bft) SO 135 6,7 C 8,6 C 3,7 km/h (1 Bft)
03.06.2013 10:05 7,5 C 96 % 1024,1 hPa 0,0 l/m 3,7 km/h (1 Bft) S 180 6,9 C 8,7 C 4,8 km/h (1 Bft)
03.06.2013 10:10 7,6 C 96 % 1024,1 hPa 0,0 l/m 3,5 km/h (1 Bft) S 180 7,0 C 8,7 C 3,9 km/h (1 Bft)
03.06.2013 10:15 8,0 C 96 % 1024,1 hPa 0,0 l/m 3,7 km/h (1 Bft) S-SO 157 7,4 C 9,0 C 6,3 km/h (2 Bft)
03.06.2013 10:20 7,7 C 96 % 1024,1 hPa 0,0 l/m 3,5 km/h (1 Bft) S 180 7,1 C 9,0 C 5,6 km/h (1 Bft)
03.06.2013 10:25 7,6 C 96 % 1024,1 hPa 0,0 l/m 3,4 km/h (1 Bft) S 180 7,0 C 8,9 C 3,5 km/h (1 Bft)
03.06.2013 10:30 7,5 C 96 % 1024,1 hPa 0,0 l/m 3,1 km/h (1 Bft) W-SW 247 6,9 C 8,7 C 3,1 km/h (1 Bft)
03.06.2013 10:35 7,4 C 96 % 1024,1 hPa 0,0 l/m 3,1 km/h (1 Bft) S 180 6,8 C 8,6 C 1,9 km/h (1 Bft)
03.06.2013 10:40 7,5 C 96 % 1024,0 hPa 0,0 l/m 3,7 km/h (1 Bft) S 180 6,9 C 8,6 C 7,7 km/h (2 Bft)
03.06.2013 10:45 7,5 C 96 % 1024,0 hPa 0,0 l/m 3,9 km/h (1 Bft) S 180 6,9 C 8,4 C 5,1 km/h (1 Bft)
03.06.2013 10:50 7,6 C 96 % 1024,0 hPa 0,0 l/m 3,9 km/h (1 Bft) S-SW 202 7,0 C 8,6 C 4,8 km/h (1 Bft)
03.06.2013 10:55 7,4 C 96 % 1024,0 hPa 0,0 l/m 3,5 km/h (1 Bft) W-SW 247 6,8 C 8,5 C 9,3 km/h (2 Bft)
03.06.2013 11:00 7,3 C 96 % 1023,8 hPa 0,0 l/m 4,7 km/h (1 Bft) S 180 6,7 C 7,9 C 7,1 km/h (2 Bft)
03.06.2013 11:05 7,7 C 96 % 1023,8 hPa 0,0 l/m 5,0 km/h (1 Bft) SW 225 7,1 C 7,9 C 3,9 km/h (1 Bft)
03.06.2013 11:10 7,6 C 96 % 1023,8 hPa 0,0 l/m 4,8 km/h (1 Bft) S-SW 202 7,0 C 8,0 C 7,6 km/h (2 Bft)
03.06.2013 11:15 7,5 C 95 % 1023,8 hPa 0,0 l/m 5,0 km/h (1 Bft) W-SW 247 6,8 C 7,8 C 5,0 km/h (1 Bft)
03.06.2013 11:20 7,5 C 95 % 1023,9 hPa 0,0 l/m 5,0 km/h (1 Bft) S 180 6,8 C 7,7 C 10,1 km/h (2 Bft)
03.06.2013 11:25 7,5 C 95 % 1023,9 hPa 0,0 l/m 4,7 km/h (1 Bft) S-SW 202 6,8 C 7,9 C 9,5 km/h (2 Bft)
03.06.2013 11:30 7,7 C 95 % 1023,9 hPa 0,0 l/m 4,5 km/h (1 Bft) W-SW 247 7,0 C 8,1 C 5,3 km/h (1 Bft)
03.06.2013 11:35 7,7 C 95 % 1023,9 hPa 0,0 l/m 4,5 km/h (1 Bft) W-SW 247 7,0 C 8,4 C 6,1 km/h (2 Bft)
03.06.2013 11:40 7,6 C 95 % 1023,9 hPa 0,0 l/m 4,7 km/h (1 Bft) S 180 6,9 C 8,3 C 3,1 km/h (1 Bft)
03.06.2013 11:45 7,5 C 95 % 1023,9 hPa 0,0 l/m 4,3 km/h (1 Bft) S-SO 157 6,8 C 8,2 C 2,7 km/h (1 Bft)
03.06.2013 11:50 7,5 C 95 % 1023,9 hPa 0,0 l/m 3,7 km/h (1 Bft) S 180 6,8 C 8,3 C 8,4 km/h (2 Bft)
03.06.2013 11:55 7,6 C 95 % 1023,9 hPa 0,0 l/m 3,5 km/h (1 Bft) W-SW 247 6,9 C 8,3 C 5,3 km/h (1 Bft)
03.06.2013 12:00 7,6 C 95 % 1023,9 hPa 0,0 l/m 3,4 km/h (1 Bft) W-SW 247 6,9 C 8,3 C 5,0 km/h (1 Bft)
03.06.2013 12:05 7,6 C 95 % 1023,9 hPa 0,0 l/m 2,7 km/h (1 Bft) W-SW 247 6,9 C 8,4 C 0,0 km/h (0 Bft)
03.06.2013 12:10 7,5 C 95 % 1023,9 hPa 0,0 l/m 2,7 km/h (1 Bft) S 180 6,8 C 8,4 C 3,9 km/h (1 Bft)
03.06.2013 12:15 7,5 C 94 % 1023,9 hPa 0,0 l/m 2,7 km/h (1 Bft) W-SW 247 6,6 C 8,3 C 0,0 km/h (0 Bft)
03.06.2013 12:20 7,4 C 94 % 1023,8 hPa 0,0 l/m 3,1 km/h (1 Bft) S 180 6,5 C 8,3 C 5,1 km/h (1 Bft)
03.06.2013 12:25 7,3 C 94 % 1023,8 hPa 0,0 l/m 3,2 km/h (1 Bft) SW 225 6,4 C 8,2 C 4,8 km/h (1 Bft)
03.06.2013 12:30 7,5 C 94 % 1023,8 hPa 0,0 l/m 3,5 km/h (1 Bft) S-SW 202 6,6 C 8,2 C 3,9 km/h (1 Bft)
03.06.2013 12:35 7,3 C 94 % 1023,8 hPa 0,0 l/m 3,7 km/h (1 Bft) S 180 6,4 C 8,2 C 5,3 km/h (1 Bft)
03.06.2013 12:40 7,4 C 94 % 1023,8 hPa 0,0 l/m 3,4 km/h (1 Bft) S 180 6,5 C 8,2 C 2,7 km/h (1 Bft)
03.06.2013 12:45 7,6 C 94 % 1023,8 hPa 0,0 l/m 3,1 km/h (1 Bft) S 180 6,7 C 8,3 C 3,5 km/h (1 Bft)
03.06.2013 12:50 7,8 C 94 % 1023,8 hPa 0,0 l/m 4,0 km/h (1 Bft) W 270 6,9 C 8,2 C 6,4 km/h (2 Bft)
03.06.2013 12:55 7,9 C 94 % 1023,8 hPa 0,0 l/m 4,0 km/h (1 Bft) SO 135 7,0 C 8,4 C 4,8 km/h (1 Bft)
03.06.2013 13:00 7,9 C 94 % 1024,0 hPa 0,0 l/m 3,9 km/h (1 Bft) S 180 7,0 C 8,6 C 5,3 km/h (1 Bft)
03.06.2013 13:05 7,8 C 94 % 1024,0 hPa 0,0 l/m 3,5 km/h (1 Bft) W-SW 247 6,9 C 8,7 C 4,2 km/h (1 Bft)
03.06.2013 13:10 7,8 C 94 % 1024,0 hPa 0,0 l/m 3,4 km/h (1 Bft) S-SW 202 6,9 C 8,6 C 4,5 km/h (1 Bft)
03.06.2013 13:15 7,8 C 94 % 1024,0 hPa 0,0 l/m 4,2 km/h (1 Bft) W-SW 247 6,9 C 8,4 C 5,8 km/h (2 Bft)
03.06.2013 13:20 7,9 C 94 % 1024,1 hPa 0,0 l/m 4,3 km/h (1 Bft) W-NW 292 7,0 C 8,4 C 7,4 km/h (2 Bft)
03.06.2013 13:25 7,9 C 94 % 1024,1 hPa 0,0 l/m 3,9 km/h (1 Bft) W-SW 247 7,0 C 8,6 C 0,0 km/h (0 Bft)
03.06.2013 13:30 7,9 C 94 % 1024,1 hPa 0,0 l/m 3,2 km/h (1 Bft) S-SW 202 7,0 C 8,7 C 2,3 km/h (1 Bft)
03.06.2013 13:35 7,9 C 94 % 1024,1 hPa 0,0 l/m 3,1 km/h (1 Bft) S-SW 202 7,0 C 8,9 C 5,8 km/h (2 Bft)
03.06.2013 13:40 7,9 C 94 % 1024,1 hPa 0,0 l/m 3,9 km/h (1 Bft) W-SW 247 7,0 C 8,8 C 6,3 km/h (2 Bft)
03.06.2013 13:45 8,0 C 93 % 1024,1 hPa 0,0 l/m 4,7 km/h (1 Bft) S 180 6,9 C 8,3 C 4,3 km/h (1 Bft)
03.06.2013 13:50 7,9 C 94 % 1024,1 hPa 0,0 l/m 5,0 km/h (1 Bft) SW 225 7,0 C 8,2 C 11,1 km/h (2 Bft)
03.06.2013 13:55 7,6 C 94 % 1024,1 hPa 0,0 l/m 5,3 km/h (1 Bft) W-SW 247 6,7 C 7,8 C 8,2 km/h (2 Bft)
03.06.2013 14:00 7,3 C 93 % 1024,2 hPa 0,0 l/m 6,1 km/h (2 Bft) W-NW 292 6,2 C 7,1 C 7,4 km/h (2 Bft)
03.06.2013 14:05 6,9 C 94 % 1024,2 hPa 0,0 l/m 5,3 km/h (1 Bft) W-SW 247 6,0 C 6,7 C 5,0 km/h (1 Bft)
03.06.2013 14:10 6,7 C 94 % 1024,2 hPa 0,0 l/m 3,7 km/h (1 Bft) SW 225 5,8 C 7,0 C 4,2 km/h (1 Bft)
03.06.2013 14:15 6,5 C 94 % 1024,2 hPa 0,0 l/m 3,4 km/h (1 Bft) W 270 5,6 C 6,7 C 6,6 km/h (2 Bft)
03.06.2013 14:20 6,4 C 94 % 1024,4 hPa 0,0 l/m 3,9 km/h (1 Bft) S 180 5,5 C 6,2 C 3,2 km/h (1 Bft)
03.06.2013 14:25 6,3 C 94 % 1024,4 hPa 0,0 l/m 4,5 km/h (1 Bft) W-SW 247 5,4 C 5,8 C 4,7 km/h (1 Bft)
03.06.2013 14:30 6,3 C 94 % 1024,4 hPa 0,0 l/m 5,3 km/h (1 Bft) S 180 5,4 C 5,3 C 6,9 km/h (2 Bft)
03.06.2013 14:35 6,3 C 94 % 1024,4 hPa 0,0 l/m 5,5 km/h (1 Bft) W-SW 247 5,4 C 5,3 C 7,9 km/h (2 Bft)
03.06.2013 14:40 6,3 C 94 % 1024,4 hPa 0,0 l/m 5,0 km/h (1 Bft) W-SW 247 5,4 C 5,4 C 5,0 km/h (1 Bft)
03.06.2013 14:45 6,4 C 94 % 1024,4 hPa 0,0 l/m 4,8 km/h (1 Bft) W-SW 247 5,5 C 5,6 C 5,8 km/h (2 Bft)
03.06.2013 14:50 6,4 C 94 % 1024,4 hPa 0,0 l/m 4,8 km/h (1 Bft) SW 225 5,5 C 5,6 C 6,6 km/h (2 Bft)
03.06.2013 14:55 6,6 C 94 % 1024,4 hPa 0,0 l/m 4,8 km/h (1 Bft) S-SW 202 5,7 C 5,7 C 10,9 km/h (2 Bft)
03.06.2013 15:00 6,8 C 94 % 1024,4 hPa 0,0 l/m 4,7 km/h (1 Bft) S 180 5,9 C 5,9 C 4,0 km/h (1 Bft)
03.06.2013 15:05 7,2 C 94 % 1024,4 hPa 0,0 l/m 4,2 km/h (1 Bft) S-SW 202 6,3 C 6,4 C 7,2 km/h (2 Bft)
03.06.2013 15:10 7,4 C 94 % 1024,4 hPa 0,0 l/m 4,0 km/h (1 Bft) S-SW 202 6,5 C 6,8 C 2,4 km/h (1 Bft)
03.06.2013 15:15 7,5 C 94 % 1024,4 hPa 0,0 l/m 3,9 km/h (1 Bft) W-SW 247 6,6 C 7,3 C 4,7 km/h (1 Bft)
03.06.2013 15:20 7,4 C 94 % 1024,4 hPa 0,0 l/m 4,0 km/h (1 Bft) S 180 6,5 C 7,4 C 6,4 km/h (2 Bft)
03.06.2013 15:25 7,4 C 94 % 1024,4 hPa 0,0 l/m 4,7 km/h (1 Bft) W 270 6,5 C 7,0 C 6,6 km/h (2 Bft)
03.06.2013 15:30 7,1 C 94 % 1024,4 hPa 0,0 l/m 4,3 km/h (1 Bft) SW 225 6,2 C 7,0 C 6,4 km/h (2 Bft)
03.06.2013 15:35 6,8 C 94 % 1024,4 hPa 0,0 l/m 3,5 km/h (1 Bft) W-NW 292 5,9 C 7,1 C 2,9 km/h (1 Bft)
03.06.2013 15:40 6,5 C 94 % 1024,5 hPa 0,0 l/m 3,7 km/h (1 Bft) W-SW 247 5,6 C 6,6 C 3,7 km/h (1 Bft)
03.06.2013 15:45 6,5 C 94 % 1024,5 hPa 0,0 l/m 3,5 km/h (1 Bft) W-SW 247 5,6 C 6,4 C 7,6 km/h (2 Bft)
03.06.2013 15:50 6,4 C 94 % 1024,5 hPa 0,0 l/m 2,9 km/h (1 Bft) S-SW 202 5,5 C 6,5 C 1,6 km/h (1 Bft)
03.06.2013 15:55 6,5 C 94 % 1024,5 hPa 0,0 l/m 2,7 km/h (1 Bft) W-SW 247 5,6 C 6,5 C 4,5 km/h (1 Bft)
03.06.2013 16:00 6,5 C 94 % 1024,5 hPa 0,0 l/m 3,4 km/h (1 Bft) W-SW 247 5,6 C 6,4 C 5,6 km/h (1 Bft)
03.06.2013 16:05 6,7 C 94 % 1024,5 hPa 0,0 l/m 3,5 km/h (1 Bft) W-SW 247 5,8 C 6,4 C 4,3 km/h (1 Bft)
03.06.2013 16:10 6,7 C 94 % 1024,5 hPa 0,0 l/m 3,4 km/h (1 Bft) SW 225 5,8 C 6,4 C 2,4 km/h (1 Bft)
03.06.2013 16:15 6,6 C 94 % 1024,5 hPa 0,7 l/m 3,5 km/h (1 Bft) W 270 5,7 C 6,4 C 7,4 km/h (2 Bft)
03.06.2013 16:20 6,5 C 94 % 1024,4 hPa 0,0 l/m 3,9 km/h (1 Bft) S-SW 202 5,6 C 6,2 C 3,2 km/h (1 Bft)
03.06.2013 16:25 6,6 C 94 % 1024,4 hPa 0,0 l/m 4,3 km/h (1 Bft) S-SW 202 5,7 C 6,0 C 5,3 km/h (1 Bft)
03.06.2013 16:30 6,4 C 94 % 1024,4 hPa 0,0 l/m 4,3 km/h (1 Bft) W-SW 247 5,5 C 5,9 C 6,8 km/h (2 Bft)
03.06.2013 16:35 6,0 C 94 % 1024,4 hPa 0,0 l/m 5,0 km/h (1 Bft) S 180 5,1 C 5,3 C 7,1 km/h (2 Bft)
03.06.2013 16:40 6,0 C 94 % 1024,5 hPa 0,0 l/m 4,5 km/h (1 Bft) S 180 5,1 C 5,4 C 6,0 km/h (2 Bft)
03.06.2013 16:45 6,1 C 94 % 1024,5 hPa 0,0 l/m 3,9 km/h (1 Bft) W 270 5,2 C 5,6 C 5,5 km/h (1 Bft)
03.06.2013 16:50 6,0 C 94 % 1024,5 hPa 0,0 l/m 4,0 km/h (1 Bft) W-NW 292 5,1 C 5,5 C 2,4 km/h (1 Bft)
03.06.2013 16:55 5,9 C 95 % 1024,5 hPa 0,0 l/m 3,4 km/h (1 Bft) W 270 5,2 C 5,7 C 7,7 km/h (2 Bft)
03.06.2013 17:00 5,8 C 95 % 1024,3 hPa 0,0 l/m 3,4 km/h (1 Bft) S-SO 157 5,1 C 5,7 C 8,4 km/h (2 Bft)
03.06.2013 17:05 5,7 C 95 % 1024,3 hPa 0,0 l/m 5,1 km/h (1 Bft) O 90 5,0 C 4,7 C 5,1 km/h (1 Bft)
03.06.2013 17:10 5,8 C 95 % 1024,3 hPa 0,0 l/m 5,0 km/h (1 Bft) SW 225 5,1 C 4,8 C 8,9 km/h (2 Bft)
03.06.2013 17:15 5,6 C 95 % 1024,3 hPa 0,0 l/m 5,8 km/h (2 Bft) SW 225 4,9 C 4,5 C 9,8 km/h (2 Bft)
03.06.2013 17:20 5,6 C 95 % 1024,2 hPa 0,7 l/m 6,3 km/h (2 Bft) W 270 4,9 C 4,2 C 5,5 km/h (1 Bft)
03.06.2013 17:25 5,7 C 95 % 1024,2 hPa 0,0 l/m 5,3 km/h (1 Bft) W 270 5,0 C 4,7 C 5,0 km/h (1 Bft)
03.06.2013 17:30 5,7 C 95 % 1024,2 hPa 0,0 l/m 4,3 km/h (1 Bft) S-SW 202 5,0 C 5,0 C 8,2 km/h (2 Bft)
03.06.2013 17:35 5,6 C 95 % 1024,2 hPa 0,0 l/m 4,3 km/h (1 Bft) W 270 4,9 C 5,0 C 5,3 km/h (1 Bft)
03.06.2013 17:40 5,6 C 95 % 1024,2 hPa 0,0 l/m 4,8 km/h (1 Bft) S 180 4,9 C 4,8 C 5,8 km/h (2 Bft)
03.06.2013 17:45 5,5 C 95 % 1024,2 hPa 0,0 l/m 4,3 km/h (1 Bft) S-SW 202 4,8 C 5,0 C 4,7 km/h (1 Bft)
03.06.2013 17:50 5,5 C 95 % 1024,2 hPa 0,0 l/m 3,9 km/h (1 Bft) S-SO 157 4,8 C 5,3 C 6,0 km/h (2 Bft)
03.06.2013 17:55 5,5 C 95 % 1024,2 hPa 0,0 l/m 3,9 km/h (1 Bft) W-SW 247 4,8 C 5,1 C 4,7 km/h (1 Bft)
03.06.2013 18:00 5,5 C 95 % 1024,2 hPa 0,0 l/m 3,4 km/h (1 Bft) W-SW 247 4,8 C 5,4 C 2,3 km/h (1 Bft)
03.06.2013 18:05 5,5 C 95 % 1024,2 hPa 0,0 l/m 3,2 km/h (1 Bft) O 90 4,8 C 5,6 C 3,9 km/h (1 Bft)
03.06.2013 18:10 5,4 C 95 % 1024,2 hPa 0,0 l/m 3,1 km/h (1 Bft) W-SW 247 4,7 C 5,5 C 4,5 km/h (1 Bft)
03.06.2013 18:15 5,2 C 95 % 1024,2 hPa 0,0 l/m 3,7 km/h (1 Bft) W-SW 247 4,5 C 5,1 C 8,2 km/h (2 Bft)
03.06.2013 18:20 5,1 C 95 % 1024,2 hPa 0,0 l/m 4,2 km/h (1 Bft) W-NW 292 4,4 C 4,7 C 4,8 km/h (1 Bft)
03.06.2013 18:25 5,1 C 95 % 1024,2 hPa 0,0 l/m 4,2 km/h (1 Bft) S-SW 202 4,4 C 4,7 C 2,9 km/h (1 Bft)
03.06.2013 18:30 5,0 C 95 % 1024,2 hPa 0,0 l/m 4,2 km/h (1 Bft) W-SW 247 4,3 C 4,6 C 8,7 km/h (2 Bft)
03.06.2013 18:35 4,9 C 96 % 1024,2 hPa 0,0 l/m 4,2 km/h (1 Bft) S 180 4,3 C 4,3 C 8,5 km/h (2 Bft)
03.06.2013 18:40 4,7 C 96 % 1024,2 hPa 0,0 l/m 4,3 km/h (1 Bft) W-SW 247 4,1 C 4,1 C 4,2 km/h (1 Bft)
03.06.2013 18:45 4,6 C 96 % 1024,2 hPa 0,0 l/m 4,2 km/h (1 Bft) W 270 4,0 C 4,0 C 6,9 km/h (2 Bft)
03.06.2013 18:50 4,5 C 96 % 1024,2 hPa 0,0 l/m 3,7 km/h (1 Bft) S 180 3,9 C 4,1 C 1,6 km/h (1 Bft)
03.06.2013 18:55 4,6 C 96 % 1024,2 hPa 0,0 l/m 2,7 km/h (1 Bft) S-SO 157 4,0 C 4,4 C 2,9 km/h (1 Bft)
03.06.2013 19:00 4,5 C 96 % 1024,2 hPa 0,0 l/m 2,3 km/h (1 Bft) S-SW 202 3,9 C 4,4 C 2,7 km/h (1 Bft)
03.06.2013 19:05 4,5 C 96 % 1024,2 hPa 0,0 l/m 2,9 km/h (1 Bft) W-SW 247 3,9 C 4,4 C 3,5 km/h (1 Bft)
03.06.2013 19:10 4,5 C 96 % 1024,2 hPa 0,0 l/m 2,7 km/h (1 Bft) W-SW 247 3,9 C 4,3 C 2,3 km/h (1 Bft)
03.06.2013 19:15 4,4 C 96 % 1024,2 hPa 0,0 l/m 3,2 km/h (1 Bft) W-SW 247 3,8 C 4,1 C 4,5 km/h (1 Bft)
03.06.2013 19:20 4,3 C 96 % 1024,1 hPa 0,0 l/m 2,9 km/h (1 Bft) W 270 3,7 C 4,1 C 2,3 km/h (1 Bft)
03.06.2013 19:25 4,3 C 96 % 1024,1 hPa 0,0 l/m 2,4 km/h (1 Bft) S-SW 202 3,7 C 4,1 C 4,8 km/h (1 Bft)
03.06.2013 19:30 4,4 C 96 % 1024,1 hPa 0,0 l/m 2,1 km/h (1 Bft) SW 225 3,8 C 4,1 C 0,0 km/h (0 Bft)
03.06.2013 19:35 4,4 C 96 % 1024,1 hPa 0,0 l/m 1,6 km/h (1 Bft) S 180 3,8 C 4,2 C 1,9 km/h (1 Bft)
03.06.2013 19:40 4,4 C 96 % 1024,1 hPa 0,0 l/m 1,6 km/h (1 Bft) W 270 3,8 C 4,2 C 2,6 km/h (1 Bft)
03.06.2013 19:45 4,4 C 96 % 1024,1 hPa 0,0 l/m 1,9 km/h (1 Bft) W-SW 247 3,8 C 4,2 C 0,0 km/h (0 Bft)
03.06.2013 19:50 4,4 C 96 % 1024,1 hPa 0,0 l/m 1,1 km/h (1 Bft) S-SW 202 3,8 C 4,2 C 1,8 km/h (1 Bft)
03.06.2013 19:55 4,2 C 96 % 1024,1 hPa 0,0 l/m 2,1 km/h (1 Bft) S 180 3,6 C 4,0 C 0,0 km/h (0 Bft)
03.06.2013 20:00 4,2 C 96 % 1024,4 hPa 0,0 l/m 2,7 km/h (1 Bft) W-SW 247 3,6 C 4,0 C 1,9 km/h (1 Bft)
03.06.2013 20:05 4,2 C 96 % 1024,4 hPa 0,0 l/m 1,6 km/h (1 Bft) W-NW 292 3,6 C 3,9 C 0,0 km/h (0 Bft)
03.06.2013 20:10 4,1 C 96 % 1024,4 hPa 0,0 l/m 1,9 km/h (1 Bft) W-NW 292 3,5 C 3,8 C 4,3 km/h (1 Bft)
03.06.2013 20:15 3,9 C 96 % 1024,4 hPa 0,0 l/m 3,2 km/h (1 Bft) W-NW 292 3,3 C 3,5 C 2,9 km/h (1 Bft)
03.06.2013 20:20 3,9 C 96 % 1024,4 hPa 0,0 l/m 2,7 km/h (1 Bft) S 180 3,3 C 3,6 C 0,0 km/h (0 Bft)
03.06.2013 20:25 3,8 C 96 % 1024,4 hPa 0,0 l/m 1,3 km/h (1 Bft) W-SW 247 3,2 C 3,6 C 3,2 km/h (1 Bft)
03.06.2013 20:30 3,7 C 96 % 1024,4 hPa 0,0 l/m 0,8 km/h (0 Bft) W-SW 247 3,1 C 3,5 C 0,0 km/h (0 Bft)
03.06.2013 20:35 3,7 C 96 % 1024,4 hPa 0,0 l/m 0,6 km/h (0 Bft) W 270 3,1 C 3,3 C 0,0 km/h (0 Bft)
03.06.2013 20:40 3,7 C 96 % 1024,4 hPa 0,0 l/m 0,3 km/h (0 Bft) W 270 3,1 C 3,3 C 1,8 km/h (1 Bft)
03.06.2013 20:45 3,6 C 96 % 1024,4 hPa 0,0 l/m 0,0 km/h (0 Bft) O-SO 112 3,0 C 3,3 C 0,0 km/h (0 Bft)
03.06.2013 20:50 3,6 C 96 % 1024,4 hPa 0,0 l/m 0,2 km/h (0 Bft) O 90 3,0 C 3,3 C 0,0 km/h (0 Bft)
03.06.2013 20:55 3,5 C 96 % 1024,4 hPa 0,0 l/m 0,2 km/h (0 Bft) O 90 2,9 C 3,2 C 0,0 km/h (0 Bft)
03.06.2013 21:00 3,5 C 96 % 1024,1 hPa 0,0 l/m 0,0 km/h (0 Bft) O-NO 67 2,9 C 3,2 C 0,0 km/h (0 Bft)
03.06.2013 21:05 3,5 C 96 % 1024,1 hPa 0,0 l/m 0,0 km/h (0 Bft) O 90 2,9 C 3,2 C 0,0 km/h (0 Bft)
03.06.2013 21:10 3,5 C 96 % 1024,1 hPa 0,0 l/m 0,0 km/h (0 Bft) O 90 2,9 C 3,2 C 0,0 km/h (0 Bft)
03.06.2013 21:15 3,5 C 96 % 1024,1 hPa 0,0 l/m 0,3 km/h (0 Bft) O-NO 67 2,9 C 3,2 C 1,6 km/h (1 Bft)
03.06.2013 21:20 3,5 C 96 % 1024,1 hPa 0,0 l/m 0,5 km/h (0 Bft) O-NO 67 2,9 C 3,2 C 0,0 km/h (0 Bft)
03.06.2013 21:25 3,5 C 96 % 1024,1 hPa 0,0 l/m 0,2 km/h (0 Bft) O 90 2,9 C 3,2 C 0,0 km/h (0 Bft)
03.06.2013 21:30 3,5 C 96 % 1024,1 hPa 0,0 l/m 0,0 km/h (0 Bft) NO 45 2,9 C 3,2 C 0,0 km/h (0 Bft)
03.06.2013 21:35 3,5 C 96 % 1024,1 hPa 0,0 l/m 0,2 km/h (0 Bft) SO 135 2,9 C 3,2 C 2,1 km/h (1 Bft)
03.06.2013 21:40 3,5 C 96 % 1024,1 hPa 0,0 l/m 0,3 km/h (0 Bft) S 180 2,9 C 3,1 C 0,0 km/h (0 Bft)
03.06.2013 21:45 3,5 C 96 % 1024,1 hPa 0,0 l/m 0,2 km/h (0 Bft) O 90 2,9 C 3,1 C 0,0 km/h (0 Bft)
03.06.2013 21:50 3,5 C 96 % 1024,1 hPa 0,0 l/m 0,0 km/h (0 Bft) O 90 2,9 C 3,1 C 0,0 km/h (0 Bft)
03.06.2013 21:55 3,4 C 96 % 1024,1 hPa 0,0 l/m 0,3 km/h (0 Bft) NO 45 2,8 C 3,1 C 0,0 km/h (0 Bft)
03.06.2013 22:00 3,4 C 97 % 1024,2 hPa 0,0 l/m 0,3 km/h (0 Bft) SW 225 3,0 C 3,1 C 0,0 km/h (0 Bft)
03.06.2013 22:05 3,4 C 97 % 1024,2 hPa 0,0 l/m 0,3 km/h (0 Bft) NO 45 3,0 C 3,1 C 0,0 km/h (0 Bft)
03.06.2013 22:10 3,4 C 97 % 1024,2 hPa 0,0 l/m 0,3 km/h (0 Bft) O-SO 112 3,0 C 3,0 C 1,9 km/h (1 Bft)
03.06.2013 22:15 3,4 C 97 % 1024,2 hPa 0,0 l/m 0,3 km/h (0 Bft) O-NO 67 3,0 C 3,0 C 0,0 km/h (0 Bft)
03.06.2013 22:20 3,3 C 97 % 1023,9 hPa 0,0 l/m 0,2 km/h (0 Bft) NO 45 2,9 C 3,0 C 0,0 km/h (0 Bft)
03.06.2013 22:25 3,3 C 97 % 1023,9 hPa 0,0 l/m 0,0 km/h (0 Bft) O-NO 67 2,9 C 3,0 C 0,0 km/h (0 Bft)
03.06.2013 22:30 3,3 C 97 % 1023,9 hPa 0,0 l/m 0,0 km/h (0 Bft) N-NO 22 2,9 C 3,0 C 0,0 km/h (0 Bft)
03.06.2013 22:35 3,3 C 97 % 1023,9 hPa 0,0 l/m 0,0 km/h (0 Bft) SO 135 2,9 C 3,0 C 0,0 km/h (0 Bft)
03.06.2013 22:40 3,4 C 97 % 1023,6 hPa 0,0 l/m 0,0 km/h (0 Bft) NO 45 3,0 C 3,0 C 0,0 km/h (0 Bft)
03.06.2013 22:45 3,3 C 97 % 1023,6 hPa 0,0 l/m 0,0 km/h (0 Bft) N 360 2,9 C 3,0 C 0,0 km/h (0 Bft)
03.06.2013 22:50 3,3 C 97 % 1023,6 hPa 0,0 l/m 0,0 km/h (0 Bft) W-SW 247 2,9 C 3,0 C 0,0 km/h (0 Bft)
03.06.2013 22:55 3,3 C 97 % 1023,6 hPa 0,0 l/m 0,0 km/h (0 Bft) S 180 2,9 C 3,0 C 0,0 km/h (0 Bft)
03.06.2013 23:00 3,3 C 97 % 1023,7 hPa 0,0 l/m 0,0 km/h (0 Bft) NO 45 2,9 C 3,0 C 0,0 km/h (0 Bft)
03.06.2013 23:05 3,3 C 97 % 1023,7 hPa 0,0 l/m 0,0 km/h (0 Bft) SO 135 2,9 C 3,0 C 0,0 km/h (0 Bft)
03.06.2013 23:10 3,3 C 97 % 1023,7 hPa 0,0 l/m 0,0 km/h (0 Bft) N-NO 22 2,9 C 3,0 C 0,0 km/h (0 Bft)
03.06.2013 23:15 3,4 C 97 % 1023,7 hPa 0,0 l/m 0,0 km/h (0 Bft) SO 135 3,0 C 3,0 C 0,0 km/h (0 Bft)
03.06.2013 23:20 3,4 C 97 % 1023,5 hPa 0,0 l/m 0,0 km/h (0 Bft) S 180 3,0 C 3,0 C 0,0 km/h (0 Bft)
03.06.2013 23:25 3,4 C 97 % 1023,5 hPa 0,0 l/m 0,2 km/h (0 Bft) S 180 3,0 C 3,1 C 0,0 km/h (0 Bft)
03.06.2013 23:30 3,5 C 97 % 1023,5 hPa 0,0 l/m 0,3 km/h (0 Bft) S 180 3,1 C 3,1 C 0,0 km/h (0 Bft)
03.06.2013 23:35 3,4 C 97 % 1023,5 hPa 0,0 l/m 0,2 km/h (0 Bft) S-SO 157 3,0 C 3,1 C 0,0 km/h (0 Bft)
03.06.2013 23:40 3,4 C 97 % 1023,4 hPa 0,0 l/m 0,0 km/h (0 Bft) O 90 3,0 C 3,2 C 0,0 km/h (0 Bft)
03.06.2013 23:45 3,5 C 97 % 1023,4 hPa 0,0 l/m 0,0 km/h (0 Bft) NO 45 3,1 C 3,2 C 0,0 km/h (0 Bft)
03.06.2013 23:50 3,5 C 97 % 1023,4 hPa 0,0 l/m 0,0 km/h (0 Bft) S 180 3,1 C 3,2 C 0,0 km/h (0 Bft)
03.06.2013 23:55 3,5 C 97 % 1023,4 hPa 0,0 l/m 0,0 km/h (0 Bft) W-NW 292 3,1 C 3,2 C 0,0 km/h (0 Bft)
_ Min-Zeit 23:10 14:00 05:15 - 23:55 - - 21:55 23:20 23:55
Minimum _ 3,3 C 93 % 1022,5 hPa - 0,0 km/h (0 Bft) - - 2,8 C 3,0 C 0,0 km/h (0 Bft)
_ Max-Zeit 13:45 07:05 16:55 17:20 17:20 - - 10:15 10:20 13:50
Maximum _ 8,0 C 98 % 1024,5 hPa 0,7 l/m 6,3 km/h
W (2 Bft)
- - 7,4 C 9,0 C 11,1 km/h
SW (2 Bft)
Durchschnitt _ 5,5 C 96 % 1023,7 hPa #4,8 l/m 2,1 km/h (1 Bft) W-SW - 4,9 C 5,6 C 2,7 km/h (1 Bft)